CSN2567 ZGGG-ZSSS

Flight info

Callsign CSN2567
Flight time N/A
Altitude 29100
Route BOVMA W41 DOPKU G471 PLT A599 ELNEX G204 AND
Aircraft B38M/M-SDE1FGHILORVWXY/HB1

Departure

Time 2026-05-06 13:51
Airport Guangzhou Baiyun International Airport (ZGGG)

Arrival

Time N/A
Airport Shanghai Hongqiao International Airport (ZSSS)
Time Latitude Longitude Altitude Speed Heading
2026-05-06 13:27 23.40108 113.30708 55 ft 0 kts 292°
2026-05-06 13:40 23.40103 113.30722 56 ft 2 kts 292°
2026-05-06 13:41 23.40097 113.30737 55 ft 2 kts 292°
2026-05-06 13:41 23.40092 113.30753 55 ft 2 kts 292°
2026-05-06 13:41 23.40086 113.30767 55 ft 1 kts 292°
2026-05-06 13:41 23.40083 113.30777 55 ft 2 kts 274°
2026-05-06 13:42 23.40085 113.30793 55 ft 2 kts 243°
2026-05-06 13:42 23.40095 113.30806 55 ft 2 kts 212°
2026-05-06 13:42 23.40103 113.30810 55 ft 1 kts 194°
2026-05-06 13:42 23.40109 113.30811 55 ft 0 kts 193°
2026-05-06 13:44 23.40108 113.30811 55 ft 1 kts 192°
2026-05-06 13:45 23.40070 113.30803 55 ft 9 kts 190°
2026-05-06 13:45 23.39777 113.30726 55 ft 27 kts 194°
2026-05-06 13:45 23.39596 113.30676 55 ft 25 kts 193°
2026-05-06 13:46 23.39501 113.30782 55 ft 21 kts 107°
2026-05-06 13:46 23.39376 113.30818 55 ft 23 kts 193°
2026-05-06 13:46 23.39199 113.30771 55 ft 28 kts 194°
2026-05-06 13:46 23.39010 113.30724 55 ft 26 kts 195°
2026-05-06 13:47 23.38829 113.30672 55 ft 29 kts 194°
2026-05-06 13:47 23.38613 113.30615 55 ft 35 kts 193°
2026-05-06 13:47 23.38401 113.30557 55 ft 29 kts 193°
2026-05-06 13:47 23.38210 113.30505 55 ft 27 kts 193°
2026-05-06 13:48 23.38033 113.30456 55 ft 25 kts 194°
2026-05-06 13:48 23.37853 113.30408 55 ft 28 kts 193°
2026-05-06 13:48 23.37660 113.30359 55 ft 23 kts 179°
2026-05-06 13:48 23.37605 113.30411 55 ft 0 kts 101°
2026-05-06 13:50 23.37599 113.30441 55 ft 10 kts 102°
2026-05-06 13:50 23.37637 113.30548 55 ft 25 kts 14°
2026-05-06 13:50 23.38082 113.30665 55 ft 106 kts 16°
2026-05-06 13:51 23.39040 113.30930 56 ft 174 kts 15°
2026-05-06 13:51 23.40319 113.31304 545 ft 199 kts 17°
2026-05-06 13:51 23.41643 113.31667 1465 ft 199 kts 17°
2026-05-06 13:51 23.42989 113.32092 2047 ft 210 kts 19°
2026-05-06 13:52 23.44451 113.32567 2510 ft 229 kts 17°
2026-05-06 13:52 23.46068 113.33053 2966 ft 249 kts 16°
2026-05-06 13:52 23.47755 113.33535 3428 ft 254 kts 15°
2026-05-06 13:52 23.49487 113.34025 3890 ft 260 kts 15°
2026-05-06 13:53 23.51317 113.34544 4357 ft 281 kts 14°
2026-05-06 13:53 23.53263 113.35099 4817 ft 301 kts 14°
2026-05-06 13:53 23.55357 113.35696 5275 ft 314 kts 14°
2026-05-06 13:53 23.57522 113.36233 5734 ft 318 kts 10°
2026-05-06 13:54 23.59700 113.36702 6185 ft 321 kts 12°
2026-05-06 13:54 23.61821 113.37563 6633 ft 335 kts 32°
2026-05-06 13:54 23.63497 113.39365 7087 ft 352 kts 58°
2026-05-06 13:54 23.64433 113.41894 7553 ft 365 kts 75°
2026-05-06 13:55 23.64994 113.44632 8001 ft 377 kts 79°
2026-05-06 13:55 23.65474 113.47436 8442 ft 381 kts 79°
2026-05-06 13:55 23.65970 113.50284 8894 ft 388 kts 78°
2026-05-06 13:55 23.66512 113.53200 9344 ft 398 kts 78°
2026-05-06 13:56 23.67092 113.56155 9799 ft 403 kts 77°
2026-05-06 13:56 23.67705 113.59157 10255 ft 407 kts 77°
2026-05-06 13:56 23.68330 113.62155 10707 ft 408 kts 76°
2026-05-06 13:56 23.68973 113.65211 11163 ft 412 kts 77°
2026-05-06 13:57 23.69613 113.68240 11616 ft 415 kts 77°
2026-05-06 13:57 23.70267 113.71345 12075 ft 418 kts 76°
2026-05-06 13:57 23.70914 113.74420 12545 ft 421 kts 76°
2026-05-06 13:57 23.71565 113.77523 13013 ft 425 kts 76°
2026-05-06 13:58 23.72223 113.80664 13485 ft 427 kts 76°
2026-05-06 13:58 23.72880 113.83811 13960 ft 430 kts 76°
2026-05-06 13:58 23.73553 113.87036 14434 ft 433 kts 77°
2026-05-06 13:58 23.74219 113.90227 14899 ft 437 kts 77°
2026-05-06 13:59 23.74899 113.93493 15376 ft 440 kts 77°
2026-05-06 13:59 23.75569 113.96715 15842 ft 442 kts 77°
2026-05-06 13:59 23.76250 113.99994 16310 ft 446 kts 77°
2026-05-06 13:59 23.76941 114.03323 16773 ft 448 kts 77°
2026-05-06 14:00 23.77629 114.06641 17230 ft 451 kts 77°
2026-05-06 14:00 23.78321 114.09986 17694 ft 453 kts 77°
2026-05-06 14:00 23.79012 114.13328 18157 ft 456 kts 77°
2026-05-06 14:00 23.79711 114.16710 18627 ft 458 kts 77°
2026-05-06 14:01 23.80413 114.20106 19104 ft 459 kts 77°
2026-05-06 14:01 23.81262 114.23437 19567 ft 461 kts 70°
2026-05-06 14:01 23.82551 114.26622 20041 ft 462 kts 60°
2026-05-06 14:01 23.84327 114.29578 20526 ft 462 kts 50°
2026-05-06 14:02 23.86476 114.32134 20995 ft 461 kts 41°
2026-05-06 14:02 23.88886 114.34435 21469 ft 461 kts 37°
2026-05-06 14:02 23.91415 114.36608 21949 ft 462 kts 35°
2026-05-06 14:02 23.93991 114.38718 22426 ft 463 kts 34°
2026-05-06 14:03 23.96592 114.40819 22911 ft 463 kts 34°
2026-05-06 14:03 23.99173 114.42909 23394 ft 464 kts 34°
2026-05-06 14:03 24.01738 114.45008 23876 ft 464 kts 34°
2026-05-06 14:03 24.04332 114.47154 24372 ft 464 kts 34°
2026-05-06 14:04 24.06894 114.49291 24866 ft 464 kts 35°
2026-05-06 14:04 24.09437 114.51427 25354 ft 464 kts 35°
2026-05-06 14:04 24.12016 114.53603 25856 ft 464 kts 35°
2026-05-06 14:04 24.14556 114.55754 26349 ft 463 kts 35°
2026-05-06 14:05 24.17121 114.57931 26849 ft 463 kts 35°
2026-05-06 14:05 24.19649 114.60081 27344 ft 462 kts 35°
2026-05-06 14:05 24.22160 114.62218 27839 ft 461 kts 34°
2026-05-06 14:05 24.24712 114.64393 28293 ft 461 kts 34°
2026-05-06 14:06 24.27263 114.66565 28551 ft 466 kts 35°
2026-05-06 14:06 24.29810 114.68735 28802 ft 470 kts 35°
2026-05-06 14:06 24.32400 114.70942 29013 ft 474 kts 35°
2026-05-06 14:06 24.35029 114.73185 29053 ft 481 kts 34°
2026-05-06 14:07 24.40381 114.77751 29064 ft 495 kts 35°
2026-05-06 14:07 24.45868 114.82442 29066 ft 502 kts 35°
2026-05-06 14:08 24.51362 114.87153 29074 ft 501 kts 35°
2026-05-06 14:08 24.57074 114.91494 29067 ft 495 kts 24°
2026-05-06 14:09 24.63501 114.94012 29067 ft 489 kts 11°
2026-05-06 14:09 24.70142 114.95654 29061 ft 488 kts
2026-05-06 14:10 24.76814 114.97150 29056 ft 488 kts
2026-05-06 14:10 24.83481 114.98677 29063 ft 489 kts
2026-05-06 14:11 24.90101 115.00237 29061 ft 489 kts
2026-05-06 14:11 24.96790 115.01848 29070 ft 490 kts
2026-05-06 14:12 25.03414 115.03458 29063 ft 489 kts
2026-05-06 14:12 25.10082 115.05087 29059 ft 489 kts
2026-05-06 14:13 25.16739 115.06716 29051 ft 488 kts
2026-05-06 14:13 25.23353 115.08336 29055 ft 488 kts
2026-05-06 14:14 25.29998 115.09837 29049 ft 485 kts
2026-05-06 14:14 25.36651 115.09669 29050 ft 476 kts 343°
2026-05-06 14:15 25.42836 115.07212 29035 ft 470 kts 333°
2026-05-06 14:15 25.48769 115.04215 29029 ft 469 kts 332°
2026-05-06 14:16 25.54671 115.01116 29029 ft 467 kts 331°
2026-05-06 14:16 25.60546 114.98040 29030 ft 466 kts 332°
2026-05-06 14:17 25.66405 114.95009 29028 ft 466 kts 333°
2026-05-06 14:17 25.72594 114.92705 29033 ft 474 kts 348°
2026-05-06 14:18 25.75879 114.92514 29039 ft 480 kts 359°
2026-05-06 14:18 25.79225 114.92970 29046 ft 486 kts
2026-05-06 14:18 25.85737 114.95185 29031 ft 493 kts 22°
2026-05-06 14:19 25.88656 114.97161 29030 ft 500 kts 34°
2026-05-06 14:19 25.91283 114.99705 29030 ft 504 kts 40°
2026-05-06 14:19 25.96186 115.05321 29018 ft 507 kts 43°
2026-05-06 14:20 26.00954 115.11092 29013 ft 508 kts 44°
2026-05-06 14:20 26.05739 115.16903 29017 ft 509 kts 44°
2026-05-06 14:21 26.10527 115.22676 29024 ft 509 kts 43°
2026-05-06 14:21 26.15343 115.28449 29020 ft 509 kts 43°
2026-05-06 14:22 26.20176 115.34230 29019 ft 509 kts 43°
2026-05-06 14:22 26.25008 115.40009 29034 ft 510 kts 43°
2026-05-06 14:23 26.29813 115.45762 29046 ft 510 kts 43°
2026-05-06 14:23 26.34670 115.51587 29054 ft 511 kts 44°
2026-05-06 14:24 26.39480 115.57364 29052 ft 512 kts 44°
2026-05-06 14:24 26.44330 115.63195 29046 ft 512 kts 44°
2026-05-06 14:25 26.49174 115.69028 29034 ft 513 kts 44°